| time (UTC) | temp C | wind direction | speed KPH | gust KPH | rain 1hr cm | rain 24hr cm | rain mn cm | humidity % | barometer mb |
| 20260506212717 | 7 | 219 | 1.6 | 4.8 | 0.00 | 0.46 | 0.46 | 90 | 1012.3 |
| 20260506211718 | 8 | 208 | 1.6 | 8.0 | 0.00 | 0.46 | 0.46 | 90 | 1012.3 |
| 20260506210716 | 8 | 218 | 1.6 | 8.0 | 0.00 | 0.46 | 0.46 | 90 | 1012.2 |
| 20260506205716 | 8 | 201 | 0.0 | 4.8 | 0.00 | 0.46 | 0.46 | 90 | 1012.3 |
| 20260506204716 | 8 | 214 | 1.6 | 3.2 | 0.00 | 0.46 | 0.46 | 91 | 1012.2 |
| 20260506203716 | 7 | 156 | 3.2 | 8.0 | 0.00 | 0.46 | 0.46 | 92 | 1012.3 |
| 20260506202717 | 7 | 147 | 1.6 | 8.0 | 0.00 | 0.46 | 0.46 | 93 | 1012.3 |
| 20260506201717 | 7 | 0.0 | 0.0 | 0.00 | 0.46 | 0.46 | 91 | 1012.2 | |
| 20260506200717 | 7 | 187 | 0.0 | 1.6 | 0.00 | 0.46 | 0.46 | 91 | 1012.0 |
| 20260506195715 | 7 | 0.0 | 0.0 | 0.00 | 0.46 | 0.46 | 91 | 1011.8 | |
| 20260506194716 | 8 | 216 | 0.0 | 4.8 | 0.00 | 0.46 | 0.46 | 91 | 1011.7 |
| 20260506193716 | 8 | 204 | 1.6 | 8.0 | 0.00 | 0.46 | 0.46 | 90 | 1011.5 |
| 20260506192716 | 8 | 213 | 3.2 | 11.3 | 0.00 | 0.46 | 0.46 | 90 | 1011.4 |
| 20260506191717 | 8 | 219 | 6.4 | 12.9 | 0.00 | 0.46 | 0.46 | 90 | 1011.3 |
| 20260506190718 | 8 | 219 | 4.8 | 14.5 | 0.00 | 0.46 | 0.46 | 89 | 1011.3 |
| 20260506185718 | 8 | 220 | 4.8 | 12.9 | 0.00 | 0.46 | 0.46 | 89 | 1011.2 |
| 20260506184715 | 8 | 221 | 4.8 | 14.5 | 0.00 | 0.46 | 0.46 | 90 | 1011.2 |
| 20260506183716 | 8 | 213 | 4.8 | 11.3 | 0.00 | 0.46 | 0.46 | 90 | 1011.2 |
| 20260506182716 | 8 | 210 | 4.8 | 14.5 | 0.00 | 0.46 | 0.46 | 91 | 1011.0 |
| 20260506181717 | 8 | 207 | 1.6 | 6.4 | 0.00 | 0.46 | 0.46 | 91 | 1010.9 |
| 20260506180717 | 8 | 208 | 3.2 | 9.7 | 0.00 | 0.46 | 0.46 | 90 | 1010.8 |
| 20260506175717 | 8 | 206 | 6.4 | 17.7 | 0.00 | 0.46 | 0.46 | 89 | 1010.6 |
| 20260506174717 | 9 | 213 | 6.4 | 17.7 | 0.00 | 0.46 | 0.46 | 89 | 1010.4 |
| 20260506173715 | 9 | 217 | 4.8 | 8.0 | 0.00 | 0.46 | 0.46 | 90 | 1010.4 |
| 20260506172716 | 9 | 217 | 4.8 | 9.7 | 0.00 | 0.48 | 0.46 | 89 | 1010.3 |
| 20260506171716 | 9 | 218 | 4.8 | 16.1 | 0.00 | 0.48 | 0.46 | 88 | 1010.3 |
| 20260506170717 | 9 | 209 | 4.8 | 12.9 | 0.00 | 0.48 | 0.46 | 88 | 1010.3 |
| 20260506165717 | 9 | 212 | 6.4 | 12.9 | 0.00 | 0.48 | 0.46 | 88 | 1010.2 |
| 20260506164717 | 9 | 209 | 8.0 | 17.7 | 0.00 | 0.48 | 0.46 | 88 | 1010.2 |
| 20260506163717 | 9 | 217 | 9.7 | 19.3 | 0.00 | 0.53 | 0.46 | 87 | 1010.2 |
| 20260506162715 | 9 | 217 | 8.0 | 19.3 | 0.00 | 0.66 | 0.46 | 88 | 1010.0 |
| 20260506161716 | 9 | 219 | 9.7 | 22.5 | 0.00 | 0.69 | 0.46 | 88 | 1010.1 |
| 20260506160716 | 10 | 212 | 9.7 | 19.3 | 0.00 | 0.71 | 0.46 | 88 | 1010.0 |
| 20260506155717 | 10 | 220 | 8.0 | 16.1 | 0.00 | 0.71 | 0.46 | 90 | 1010.1 |
| 20260506154716 | 9 | 203 | 6.4 | 17.7 | 0.00 | 0.71 | 0.46 | 91 | 1010.1 |
| 20260506153717 | 9 | 214 | 8.0 | 24.1 | 0.00 | 0.71 | 0.46 | 92 | 1010.1 |
| 20260506152718 | 9 | 218 | 8.0 | 17.7 | 0.00 | 0.74 | 0.46 | 92 | 1010.2 |
| 20260506151716 | 9 | 218 | 6.4 | 14.5 | 0.00 | 0.74 | 0.46 | 92 | 1010.1 |
| 20260506150716 | 9 | 214 | 8.0 | 17.7 | 0.00 | 0.74 | 0.46 | 91 | 1010.1 |
| 20260506145717 | 9 | 222 | 9.7 | 16.1 | 0.00 | 0.74 | 0.46 | 92 | 1010.1 |
| 20260506144716 | 9 | 216 | 9.7 | 19.3 | 0.00 | 0.74 | 0.46 | 92 | 1010.1 |
| 20260506143717 | 8 | 220 | 8.0 | 16.1 | 0.03 | 0.74 | 0.46 | 93 | 1010.1 |
| 20260506142717 | 8 | 219 | 8.0 | 16.1 | 0.05 | 0.74 | 0.46 | 94 | 1010.0 |
| 20260506141717 | 8 | 204 | 8.0 | 14.5 | 0.05 | 0.74 | 0.46 | 94 | 1010.0 |
| 20260506140715 | 8 | 213 | 8.0 | 14.5 | 0.08 | 0.74 | 0.46 | 94 | 1010.0 |
| 20260506135716 | 8 | 215 | 9.7 | 19.3 | 0.10 | 0.74 | 0.46 | 94 | 1010.0 |
| 20260506134717 | 8 | 206 | 9.7 | 22.5 | 0.13 | 0.74 | 0.46 | 94 | 1010.0 |
| 20260506133717 | 8 | 219 | 9.7 | 20.9 | 0.13 | 0.71 | 0.43 | 95 | 1010.0 |
| 20260506132717 | 8 | 212 | 9.7 | 19.3 | 0.13 | 0.71 | 0.43 | 95 | 1010.0 |
| 20260506131717 | 8 | 217 | 9.7 | 17.7 | 0.13 | 0.69 | 0.41 | 95 | 1010.0 |
| 20260506130718 | 8 | 209 | 11.3 | 24.1 | 0.15 | 0.66 | 0.38 | 95 | 1009.9 |
| 20260506125715 | 8 | 213 | 11.3 | 19.3 | 0.23 | 0.64 | 0.36 | 96 | 1009.7 |
| 20260506124716 | 8 | 204 | 9.7 | 24.1 | 0.25 | 0.61 | 0.33 | 96 | 1009.6 |
| 20260506123716 | 8 | 205 | 12.9 | 29.0 | 0.25 | 0.61 | 0.33 | 96 | 1009.4 |
| 20260506122716 | 8 | 207 | 12.9 | 25.7 | 0.25 | 0.58 | 0.30 | 95 | 1009.2 |
| 20260506121717 | 9 | 204 | 9.7 | 20.9 | 0.23 | 0.56 | 0.28 | 95 | 1009.0 |
| 20260506120717 | 10 | 215 | 14.5 | 25.7 | 0.23 | 0.51 | 0.23 | 94 | 1008.8 |
| 20260506115717 | 11 | 197 | 3.2 | 11.3 | 0.10 | 0.41 | 0.13 | 94 | 1008.6 |
| 20260506114716 | 11 | 229 | 1.6 | 4.8 | 0.05 | 0.36 | 0.08 | 93 | 1008.5 |
| 20260506113716 | 11 | 207 | 3.2 | 8.0 | 0.05 | 0.33 | 0.05 | 91 | 1008.3 |
| 20260506112716 | 12 | 218 | 1.6 | 8.0 | 0.03 | 0.33 | 0.05 | 91 | 1008.1 |
| 20260506111716 | 12 | 227 | 1.6 | 6.4 | 0.05 | 0.33 | 0.05 | 90 | 1008.2 |
| 20260506110717 | 12 | 295 | 4.8 | 9.7 | 0.03 | 0.33 | 0.03 | 88 | 1008.1 |
| 20260506105717 | 12 | 227 | 1.6 | 6.4 | 0.03 | 0.33 | 0.03 | 86 | 1008.2 |
| 20260506104715 | 12 | 268 | 1.6 | 4.8 | 0.03 | 0.33 | 0.03 | 86 | 1008.2 |
| 20260506103716 | 12 | 274 | 3.2 | 8.0 | 0.03 | 0.33 | 0.03 | 85 | 1008.1 |
| 20260506102716 | 12 | 259 | 1.6 | 4.8 | 0.03 | 0.33 | 0.03 | 88 | 1008.0 |
| 20260506101717 | 11 | 291 | 3.2 | 6.4 | 0.00 | 0.33 | 0.00 | 86 | 1008.0 |
| 20260506100716 | 11 | 301 | 1.6 | 4.8 | 0.00 | 0.33 | 0.00 | 87 | 1008.1 |
| 20260506095717 | 11 | 295 | 0.0 | 3.2 | 0.00 | 0.33 | 0.00 | 87 | 1008.1 |
| 20260506094717 | 12 | 228 | 0.0 | 1.6 | 0.00 | 0.33 | 0.00 | 86 | 1008.2 |
| 20260506093716 | 12 | 244 | 0.0 | 4.8 | 0.00 | 0.33 | 0.00 | 84 | 1008.2 |
| 20260506092716 | 12 | 263 | 0.0 | 3.2 | 0.00 | 0.33 | 0.00 | 87 | 1008.1 |
| 20260506091716 | 12 | 266 | 0.0 | 4.8 | 0.00 | 0.33 | 0.00 | 89 | 1007.9 |
| 20260506090716 | 11 | 0.0 | 0.0 | 0.00 | 0.33 | 0.00 | 89 | 1007.9 | |
| 20260506085716 | 11 | 0.0 | 0.0 | 0.00 | 0.33 | 0.00 | 89 | 1008.0 | |
| 20260506084717 | 11 | 0.0 | 0.0 | 0.00 | 0.33 | 0.00 | 88 | 1007.9 | |
| 20260506083717 | 11 | 0.0 | 0.0 | 0.00 | 0.33 | 0.00 | 88 | 1007.9 | |
| 20260506082715 | 11 | 0.0 | 0.0 | 0.00 | 0.33 | 0.00 | 88 | 1007.9 | |
| 20260506081715 | 11 | 0.0 | 0.0 | 0.00 | 0.33 | 0.00 | 88 | 1007.9 | |
| 20260506080716 | 11 | 0.0 | 0.0 | 0.00 | 0.33 | 0.00 | 89 | 1007.9 | |
| 20260506072717 | 11 | 0.0 | 0.0 | 0.00 | 0.36 | 0.00 | 91 | 1008.0 | |
| 20260506071716 | 11 | 0.0 | 0.0 | 0.00 | 0.36 | 0.00 | 90 | 1007.8 | |
| 20260506070715 | 11 | 0.0 | 0.0 | 0.00 | 0.36 | 0.00 | 90 | 1007.9 | |
| 20260506061717 | 10 | 0.0 | 0.0 | 0.00 | 0.36 | 0.00 | 89 | 1007.8 | |
| 20260506060715 | 10 | 0.0 | 0.0 | 0.00 | 0.36 | 0.00 | 91 | 1007.7 | |
| 20260506050717 | 9 | 0.0 | 0.0 | 0.00 | 0.36 | 0.00 | 92 | 1008.0 | |
| 20260506044715 | 9 | 0.0 | 0.0 | 0.00 | 0.36 | 0.00 | 91 | 1007.9 | |
| 20260506043716 | 9 | 0.0 | 0.0 | 0.00 | 0.36 | 0.00 | 91 | 1008.0 | |
| 20260506042716 | 9 | 0.0 | 0.0 | 0.00 | 0.36 | 0.00 | 91 | 1008.0 | |
| 20260506041717 | 9 | 0.0 | 0.0 | 0.00 | 0.36 | 0.00 | 90 | 1008.0 | |
| 20260506040717 | 9 | 0.0 | 0.0 | 0.00 | 0.36 | 0.00 | 91 | 1008.1 | |
| 20260506035718 | 9 | 0.0 | 0.0 | 0.00 | 0.36 | 0.00 | 91 | 1008.3 | |
| 20260506034715 | 9 | 0.0 | 0.0 | 0.00 | 0.36 | 0.00 | 91 | 1008.4 | |
| 20260506033716 | 9 | 0.0 | 0.0 | 0.00 | 0.36 | 0.00 | 91 | 1008.5 | |
| 20260506032716 | 9 | 0.0 | 0.0 | 0.00 | 0.36 | 0.00 | 91 | 1008.6 | |
| 20260506031716 | 9 | 0.0 | 0.0 | 0.00 | 0.36 | 0.00 | 91 | 1008.6 | |
| 20260506030716 | 10 | 0.0 | 0.0 | 0.00 | 0.36 | 0.00 | 91 | 1008.7 | |
| 20260506025717 | 10 | 0.0 | 0.0 | 0.00 | 0.36 | 0.00 | 91 | 1008.8 | |
| 20260506024717 | 10 | 0.0 | 0.0 | 0.00 | 0.36 | 0.00 | 90 | 1009.0 | |
| 20260506023715 | 10 | 0.0 | 0.0 | 0.00 | 0.36 | 0.00 | 90 | 1008.9 | |
| 20260506022716 | 10 | 240 | 0.0 | 1.6 | 0.00 | 0.36 | 0.00 | 90 | 1008.9 |
| 20260506021716 | 10 | 228 | 0.0 | 3.2 | 0.00 | 0.36 | 0.00 | 90 | 1009.0 |
| 20260506020717 | 10 | 0.0 | 0.0 | 0.00 | 0.36 | 0.00 | 91 | 1009.3 | |
| 20260506015717 | 10 | 243 | 0.0 | 4.8 | 0.00 | 0.36 | 0.00 | 90 | 1009.4 |
| 20260506014717 | 10 | 192 | 3.2 | 9.7 | 0.00 | 0.36 | 0.00 | 89 | 1009.5 |
| 20260506013718 | 10 | 214 | 3.2 | 9.7 | 0.00 | 0.36 | 0.00 | 89 | 1009.5 |
| 20260506012715 | 10 | 219 | 3.2 | 8.0 | 0.00 | 0.36 | 0.00 | 90 | 1009.6 |
| 20260506011716 | 10 | 215 | 3.2 | 6.4 | 0.00 | 0.36 | 0.00 | 90 | 1009.7 |
| 20260506010716 | 10 | 222 | 1.6 | 4.8 | 0.00 | 0.36 | 0.00 | 90 | 1009.8 |
| 20260506005716 | 10 | 219 | 0.0 | 4.8 | 0.00 | 0.36 | 0.00 | 90 | 1009.9 |
| 20260506004716 | 10 | 164 | 1.6 | 6.4 | 0.00 | 0.36 | 0.00 | 91 | 1010.0 |
| 20260506003717 | 10 | 147 | 0.0 | 3.2 | 0.00 | 0.36 | 0.00 | 92 | 1010.0 |
| 20260506002718 | 10 | 173 | 0.0 | 1.6 | 0.00 | 0.36 | 0.00 | 92 | 1010.2 |
| 20260506001715 | 10 | 154 | 1.6 | 11.3 | 0.00 | 0.36 | 0.00 | 93 | 1010.4 |
| 20260506000716 | 10 | 145 | 0.0 | 1.6 | 0.00 | 0.36 | 0.00 | 93 | 1010.4 |
| 20260505235716 | 10 | 0.0 | 0.0 | 0.00 | 0.36 | 0.00 | 93 | 1010.3 | |
| 20260505234717 | 10 | 0.0 | 0.0 | 0.00 | 0.36 | 0.00 | 92 | 1010.3 | |
| 20260505233717 | 10 | 182 | 1.6 | 6.4 | 0.00 | 0.36 | 0.00 | 92 | 1010.3 |
| 20260505232718 | 10 | 150 | 0.0 | 1.6 | 0.00 | 0.36 | 0.00 | 92 | 1010.4 |
| 20260505231718 | 10 | 144 | 0.0 | 3.2 | 0.00 | 0.36 | 0.00 | 91 | 1010.5 |
| 20260505230716 | 10 | 165 | 0.0 | 1.6 | 0.00 | 0.36 | 0.00 | 91 | 1010.7 |
| 20260505225716 | 10 | 159 | 0.0 | 3.2 | 0.00 | 0.36 | 0.00 | 91 | 1010.7 |
| 20260505224716 | 10 | 161 | 1.6 | 9.7 | 0.00 | 0.36 | 0.00 | 90 | 1010.7 |
| 20260505223716 | 10 | 0.0 | 0.0 | 0.00 | 0.36 | 0.00 | 89 | 1010.7 | |
| 20260505222717 | 11 | 0.0 | 0.0 | 0.00 | 0.36 | 0.00 | 88 | 1010.7 | |
| 20260505221717 | 10 | 132 | 0.0 | 3.2 | 0.00 | 0.36 | 0.00 | 88 | 1010.6 |
| 20260505220717 | 10 | 0.0 | 0.0 | 0.00 | 0.36 | 0.00 | 88 | 1010.8 | |
| 20260505215715 | 10 | 0.0 | 0.0 | 0.00 | 0.36 | 0.36 | 88 | 1010.9 | |
| 20260505214716 | 11 | 0.0 | 0.0 | 0.00 | 0.36 | 0.36 | 88 | 1011.0 | |
| 20260505213716 | 11 | 150 | 1.6 | 4.8 | 0.00 | 0.36 | 0.36 | 88 | 1011.0 |